STARLINK-32712

Last updated on Wed Jan 29 2025 00:02:04 GMT+0000 (Coordinated Universal Time)

1 62433U 24251B 25028.37484536 .00000485 00000+0 16775-4 0 9995 2 62433 53.1611 67.1371 0001304 93.9625 266.1533 15.49326901 5757
UTC large
Height (km)
Speed (km/s)
/
Latitude / Longitude
Inclination (degrees)
Orbital Period (minutes)
Azimuth
Elevation
Range (km)
Doppler Factor

Next 0 passes for location: London (51.5072 / 0.1276)

Sorry there are no passes over London.